CAPE
0 0 0 0 0 0 287 859 1558 1455 1762 1868 1721 1692 1358 938 487 452 374 359 310 259 99 0 0 0 0 0 0 0 0 0
0 0 0 0 0 0 43 527 1496 1478 1397 1230 1127 1139 1088 842 499 439 297 242 63 7 0 0 0 0 0 0 0 0 0 0
0 0 0 0 0 0 0 442 883 1414 1181 877 781 826 870 863 563 280 313 85 2 1 0 0 0 0 0 0 0 0 0 0
0 0 0 0 0 0 0 152 680 1252 1146 746 619 658 726 586 455 186 127 60 2 1 0 0 0 0 0 0 0 0 0 0
0 0 0 0 0 0 0 33 492 1112 1266 691 561 508 575 507 483 271 38 3 2 1 1 0 0 0 0 0 0 0 0 0
0 0 0 0 0 0 0 19 337 902 1404 869 534 482 510 461 351 265 35 2 1 2 1 1 0 0 0 0 0 0 0 0
0 0 0 0 0 0 0 0 366 841 1284 1149 741 520 523 459 343 294 132 2 2 2 1 1 0 0 0 0 0 0 0 0
0 0 0 0 0 0 0 0 0 89 955 1364 1038 764 645 497 486 303 238 52 2 1 2 1 1 0 0 0 0 0 0 0
0 0 0 0 0 0 0 0 0 0 2 966 1159 974 911 913 786 562 337 147 4 2 2 1 1 1 0 0 0 0 0 0
0 0 0 0 0 0 0 0 0 0 1 20 365 1328 1174 1031 1077 992 632 391 128 2 2 2 1 1 1 0 0 0 0 0
0 0 0 0 0 0 0 0 0 0 0 5 129 169 1323 1460 1203 1001 878 686 385 2 2 1 1 1 1 0 0 0 0 0
0 0 0 0 0 0 0 0 0 0 0 3 3 201 464 1112 1523 1232 963 736 479 116 2 2 1 1 1 1 0 0 0 0
0 0 0 0 0 0 0 0 0 0 0 0 2 1 289 977 979 1219 1060 847 651 359 4 3 2 1 1 2 2 1 1 1
0 0 0 0 0 0 0 0 0 0 1 0 0 0 2 114 220 1067 1051 893 722 411 97 5 3 2 1 1 2 1 2 0
0 0 0 0 0 0 0 0 0 0 0 1 0 1 0 0 0 2 616 1001 893 474 132 7 2 1 2 2 2 1 1 1
0 0 0 0 0 0 0 0 0 0 0 0 0 4 1 0 0 0 3 42 369 541 240 71 2 2 1 2 1 1 1 1
0 0 0 0 0 0 0 0 0 0 0 0 1 3 1 0 0 0 0 0 0 0 0 1 2 1 0 0 1 1 1 2
0 0 0 0 0 0 0 0 0 0 0 0 11 4 1 3 0 1 1 0 0 0 0 0 0 1 0 0 0 1 1 1
0 0 0 0 0 0 0 0 0 0 0 1 2 3 1 3 0 0 1 0 0 0 0 0 0 0 0 0 0 0 0 0
CIN
0 0 0 0 0 0 -151 -98 -123 -135 -80 -53 -54 -43 -96 -142 -241 -230 -201 -168 -155 -117 -140 0 0 0 0 0 0 0 0 0
0 0 0 0 0 0 -287 -130 -99 -89 -100 -117 -135 -152 -164 -197 -262 -256 -239 -211 -280 -267 0 0 0 0 0 0 0 0 0 0
0 0 0 0 0 0 0 -189 -87 -72 -138 -200 -184 -195 -185 -197 -217 -263 -248 -303 0 0 0 0 0 0 0 0 0 0 0 0
0 0 0 0 0 0 0 -318 -115 -30 -102 -147 -168 -137 -94 -99 -157 -329 -368 -392 0 0 0 0 0 0 0 0 0 0 0 0
0 0 0 0 0 0 0 -409 -170 -34 -44 -134 -199 -209 -164 -216 -223 -303 -373 -92 0 0 0 0 0 0 0 0 0 0 0 0
0 0 0 0 0 0 0 -106 -222 -69 -45 -101 -172 -190 -200 -218 -207 -210 -418 0 0 0 0 0 0 0 0 0 0 0 0 0
0 0 0 0 0 0 0 0 -173 -74 -44 -69 -113 -147 -172 -184 -218 -217 -310 0 0 0 0 0 0 0 0 0 0 0 0 0
0 0 0 0 0 0 0 0 0 -50 -61 -23 -59 -106 -133 -155 -159 -225 -229 -395 0 0 0 0 0 0 0 0 0 0 0 0
0 0 0 0 0 0 0 0 0 0 -1 -51 -39 -57 -71 -82 -103 -155 -213 -305 -113 0 0 0 0 0 0 0 0 0 0 0
0 0 0 0 0 0 0 0 0 0 -17 -282 -108 -19 -46 -91 -93 -111 -161 -211 -289 0 0 0 0 0 0 0 0 0 0 0
0 0 0 0 0 0 0 0 0 0 0 0 -190 -145 -6 -10 -38 -81 -116 -158 -227 -194 0 0 0 0 0 0 0 0 0 0
0 0 0 0 0 0 0 0 0 0 0 -1 0 -145 -90 -17 -9 -39 -74 -106 -179 -336 0 0 0 0 0 0 0 0 0 0
0 0 0 0 0 0 0 0 0 0 0 0 0 0 -83 -2 -7 -6 -37 -78 -98 -200 -321 0 0 0 0 0 0 0 0 0
0 0 0 0 0 0 0 0 0 0 -1 0 0 0 0 -161 -143 -15 -1 -27 -77 -145 -305 -518 0 0 0 0 0 0 0 0
0 0 0 0 0 0 0 0 0 0 -1 -1 0 0 0 0 0 -209 -65 0 -14 -108 -271 -535 0 0 0 0 0 0 0 0
0 0 0 0 0 0 0 0 0 0 0 0 0 0 0 0 0 0 -16 -336 -147 -55 -182 -310 0 0 0 0 0 0 0 0
0 0 0 0 0 0 0 0 0 0 0 0 0 0 0 0 0 0 0 0 0 0 0 0 0 0 0 0 0 0 0 0
0 0 0 0 0 0 0 0 0 0 0 0 0 0 0 0 0 0 0 0 0 0 0 0 0 0 0 0 0 0 0 0
0 0 0 0 0 0 0 0 0 0 0 0 0 0 0 0 0 0 0 0 0 0 0 0 0 0 0 0 0 0 0 0
Wind_Speed
33 32 33 30 24 25 28 29 25 24 23 23 21 19 19 18 19 20 22 23 22 20 18 17 16 15 15 14 14 12 11 10
31 34 33 31 34 27 25 28 28 28 26 25 24 23 22 21 21 21 22 23 24 24 22 20 19 19 18 17 16 15 13 11
31 27 30 31 31 31 28 26 27 27 28 27 26 26 26 26 25 25 23 24 25 26 25 23 22 20 19 19 19 17 15 15
26 24 23 24 29 30 30 28 28 25 26 26 26 26 28 31 29 27 26 25 25 26 26 26 25 23 23 22 22 21 19 18
20 20 21 23 23 26 30 29 29 25 24 23 24 24 26 27 26 27 27 27 26 27 28 28 28 26 25 25 23 23 21 23
20 18 17 18 20 22 24 28 28 27 24 26 25 26 26 27 29 30 31 30 30 30 30 30 30 30 28 27 27 27 25 25
16 17 18 16 16 19 21 23 27 27 27 26 26 27 27 26 28 31 30 30 31 31 32 32 32 31 31 30 30 30 29 28
17 18 18 19 18 17 18 19 23 27 28 28 28 28 29 30 29 29 30 31 32 32 32 33 33 33 32 31 32 32 32 31
19 18 21 20 19 19 20 21 22 23 28 30 30 31 31 32 31 31 31 31 31 31 32 33 33 34 35 34 35 34 34 33
19 20 20 22 22 22 22 24 25 25 26 29 35 32 33 33 32 32 32 32 32 30 31 32 33 33 34 35 37 38 37 36
22 21 21 22 24 24 24 25 26 27 29 28 29 35 35 34 34 35 35 34 33 31 32 32 32 33 33 35 37 38 40 39
26 26 25 26 26 27 27 28 28 29 29 30 30 32 34 35 34 35 37 35 33 34 34 34 34 35 34 35 34 35 38 42
29 28 27 29 30 32 31 29 28 29 30 31 31 32 33 33 35 35 34 34 35 35 35 36 37 36 37 37 39 38 39 41
30 30 29 29 29 31 33 32 31 30 31 31 31 31 32 33 34 35 31 33 34 34 36 38 39 38 39 39 40 39 42 43
27 26 26 29 29 30 31 34 35 34 34 34 33 32 33 33 34 35 32 27 30 31 32 36 38 39 40 41 42 42 43 42
30 30 30 32 32 32 33 35 35 37 37 37 36 35 33 32 33 34 35 32 32 29 30 32 35 36 38 40 41 42 41 42
33 33 35 35 35 36 37 38 39 39 40 39 37 37 35 33 32 31 30 31 32 32 33 34 35 37 38 37 39 40 40 42
32 35 35 36 36 38 39 41 41 42 41 40 38 35 35 33 30 28 29 29 28 29 32 33 34 36 36 36 34 35 38 39
33 33 33 35 35 37 37 35 38 38 40 38 35 33 33 33 32 30 27 25 25 28 30 30 30 32 32 31 29 29 30 32
Wind_Direction
270 265 262 263 256 245 243 244 235 233 238 239 239 234 234 232 227 225 218 219 218 222 226 221 218 220 217 216 215 221 225 224
273 265 266 265 261 256 244 243 237 240 235 230 232 226 232 232 229 224 222 222 222 224 231 225 221 220 220 219 219 214 217 215
273 271 269 265 263 258 253 246 243 237 237 236 239 239 241 240 241 238 227 224 224 224 227 225 222 224 220 214 211 214 222 211
272 271 271 269 265 260 256 251 249 242 240 242 244 244 246 247 242 238 230 225 223 221 223 226 225 230 225 220 217 213 221 217
273 273 274 271 271 267 260 255 252 248 241 240 230 234 236 237 237 239 236 228 224 222 225 227 227 230 230 222 223 221 228 221
274 276 279 279 276 273 267 260 254 250 245 244 243 243 244 247 245 243 241 239 235 233 232 231 230 231 232 228 226 223 231 232
285 284 282 282 283 279 272 264 259 255 252 245 246 247 248 246 243 245 242 241 239 236 234 235 234 232 233 232 229 229 234 238
287 286 286 282 283 283 280 274 265 262 257 253 251 251 251 250 249 244 244 246 243 240 234 235 235 233 233 234 233 234 233 238
286 287 286 285 284 283 281 279 275 271 266 260 256 255 255 253 253 252 249 246 245 243 242 240 241 242 240 240 241 240 240 241
293 291 286 285 285 285 282 281 282 279 275 271 265 259 255 255 253 253 253 251 251 245 242 240 241 241 242 242 244 242 243 244
292 292 293 287 285 286 286 285 282 281 280 279 275 267 262 258 257 255 255 255 251 246 244 242 243 241 242 243 247 249 248 248
293 291 292 288 286 287 286 286 285 285 283 283 282 279 271 264 259 257 256 256 253 251 246 245 244 245 244 244 245 246 247 250
294 295 293 289 287 284 287 292 291 288 286 285 284 282 279 273 266 263 258 255 254 253 252 249 246 246 245 245 248 249 249 249
294 294 292 292 295 292 289 291 291 291 287 287 283 283 283 279 277 270 263 259 255 255 252 251 250 248 247 247 249 251 252 252
294 295 301 299 295 295 293 289 289 289 288 284 283 285 286 283 281 279 276 262 258 255 252 254 253 252 251 251 252 254 255 254
291 296 291 291 298 298 297 293 292 285 285 285 286 285 288 288 283 280 278 278 273 258 254 254 255 253 253 254 254 256 256 257
290 290 288 292 297 297 296 291 285 286 282 283 286 286 286 288 288 286 284 281 276 272 267 262 260 260 259 256 257 258 257 258
299 294 292 292 293 296 295 293 287 283 285 284 284 287 287 289 291 290 287 284 280 275 270 268 265 264 264 264 261 264 263 264
301 304 305 300 302 300 303 307 297 293 289 289 289 288 287 287 288 290 287 285 284 277 273 271 270 270 267 266 260 263 265 265